Regional Weather Roundup
Issued by NWS

Current Version | Previous Version | Text Only | Print | Product List | Glossary On
Versions: 1 2 3 4 5 6 7 8 9 10 11 12 13 14 15 16 17 18 19 20 21 22 23 24 25 26 27 28 29 30 31 32 33 34 35 36 37 38 39 40 41 42 43 44 45 46 47 48 49 50
000
ASUS45 KBOU 271807
RWRCO

WEATHER ROUNDUP FOR COLORADO
NATIONAL WEATHER SERVICE DENVER/BOULDER CO
1200 PM MDT WED AUG 27 2014

NOTE: "FAIR" INDICATES FEW OR NO CLOUDS BELOW 12000 FEET WITH NO
SIGNIFICANT WEATHER AND/OR OBSTRUCTIONS TO VISIBILITY.

COZ001>005-013-030-031-271900-
...NORTHWEST COLORADO...

CITY           SKY/WX    TMP DP  RH WIND       PRES   REMARKS
CRAIG          HVY RAIN  58  52  80 S8        30.28F
HAYDEN         PTSUNNY   61  46  59 NW5       30.28F
MEEKER         PTSUNNY   62  52  69 NW7       30.29F
MOUNT WERNER   NOT AVBL
STEAMBOAT SPGS PTSUNNY   61  49  65 W5        30.29F
WALDEN         PTSUNNY   59  41  51 S10       30.33F
$$

COZ006>008-011-271900-
...WEST CENTRAL VALLEYS...

CITY           SKY/WX    TMP DP  RH WIND       PRES   REMARKS
GRAND JUNCTION PTSUNNY   63  54  72 NW22G28   30.25R
MONTROSE       MOSUNNY   67  52  58 CALM      30.30F
EAGLE          PTSUNNY   61  48  63 NW5       30.34S
RIFLE          MOSUNNY   65  52  62 N7        30.27F
DELTA          MOSUNNY   70  52  52 E5        30.27F HAZE
NUCLA          NOT AVBL
$$

COZ017>023-064>068-271900-
...SOUTHWEST COLORADO...

CITY           SKY/WX    TMP DP  RH WIND       PRES   REMARKS
DURANGO        MOSUNNY   64  49  57 SW5       30.37F
CORTEZ         MOSUNNY   66  52  60 SW6       30.34F
PAGOSA SPRINGS MOSUNNY   62  46  55 SW7       30.42F
TELLURIDE      NOT AVBL
WOLF CREEK PAS FOG       37  37 100 SW15G21   30.61F VSB 1/4
$$

COZ009-010-012-014-032>034-037-058>063-271900-
...CENTRAL COLORADO...

CITY           SKY/WX    TMP DP  RH WIND       PRES   REMARKS
ASPEN          PTSUNNY   60  46  59 NW10      30.35F
BUENA VISTA    PTSUNNY   66  34  30 W13       30.33S
COPPER MTN     CLOUDY    50  37  62 S8        30.56F
BERTHOUD PASS  FOG       37  37 100 NW9       30.60R VSB 1
COTTONWOOD PAS MOSUNNY   59  30  33 W18G32    30.44F
GUNNISON       MOSUNNY   63  45  51 SW9G17    30.38F
KREMMLING      MOSUNNY   64  43  45 W12       30.32S
LEADVILLE      CLOUDY    50  37  61 SW21G26   30.44R
MONARCH PASS   CLOUDY    41  39  93 W32G38    30.67F
SALIDA         PTSUNNY   68  39  34 W15G23    30.39F
SUNLIGHT       CLOUDY    50  46  87 CALM      30.53S
WILKERSON PASS NOT AVBL
$$

COZ069>075-271900-
...SAN LUIS VALLEY/SANGRE DE CRISTO MOUNTAINS...

CITY           SKY/WX    TMP DP  RH WIND       PRES   REMARKS
ALAMOSA        MOSUNNY   70  43  37 SW8       30.34F
LA VETA PASS   NOT AVBL
SAGUACHE       PTSUNNY   59  46  63 S9        30.37F
$$

COZ035-036-038>040-271900-
...NORTHERN COLORADO FRONT RANGE...

CITY           SKY/WX    TMP DP  RH WIND       PRES   REMARKS
DENVER INTL AP MOSUNNY   69  57  65 VRB5      30.16F
DMNS CITY PARK   N/A     74  55  52 N5G12     30.15F
AURORA         MOSUNNY   70  57  63 NW8       30.18F
FRONT RANGE AP NOT AVBL
ERIE MUNI ARPT MOSUNNY   70  55  59 N5        30.16F
BOULDER MUN AP MOSUNNY   70  54  56 N6        30.16F
CENTENNIAL     MOSUNNY   71  52  50 N8        30.19F
BROOMFIELD     MOSUNNY   72  54  53 N12       30.18F
FORT COLLINS   CLOUDY    66  55  68 N5        30.17F
LONGMONT       CLOUDY    73  58  58 N3        30.17F
$$

COZ041-046-047-076>085-087-088-271900-
...PIKES PEAK/PALMER DIVIDE AND SOUTHERN FOOTHILLS...

CITY           SKY/WX    TMP DP  RH WIND       PRES   REMARKS
COLO. SPRINGS  MOSUNNY   70  54  56 S3        30.22F
A. F. ACADEMY  SUNNY     68  55  61 S8        30.22F
ELLICOTT       SUNNY     70  54  56 VRB5      30.20F
FALCON         MOSUNNY   68  54  61 CALM      30.26F
FORT CARSON    SUNNY     71  55  57 VRB2      30.19F
LIMON          MOSUNNY   71  56  58 S8        30.16F
MONUMENT HILL  SUNNY     68  52  56 NW6       30.25F
TRINIDAD       SUNNY     74  52  46 CALM      30.20F
$$

COZ042>045-048>051-090-091-271900-
...NORTHEAST COLORADO...

CITY           SKY/WX    TMP DP  RH WIND       PRES   REMARKS
GREELEY ARPT   PTSUNNY   70  55  60 NW3       30.15F
AKRON          PTSUNNY   72  60  66 S18G26    30.13S
BURLINGTON     PTSUNNY   73  62  68 S16       30.12F
WRAY             N/A     78  63  59 S6        30.10F
STERLING       PTSUNNY   77  64  65 S8        30.09F
HOLYOKE        PTSUNNY   73  63  68 S9        30.11F
FORT MORGAN    MOSUNNY   75  59  57 S5        30.12F
$$

COZ086-089-092>099-271900-
...SOUTHEAST COLORADO...

CITY           SKY/WX    TMP DP  RH WIND       PRES   REMARKS
PUEBLO         SUNNY     77  56  48 SE5       30.12F
LA JUNTA       NOT AVBL
LAMAR          PTSUNNY   80  63  55 S13       30.08F
SPRINGFIELD      N/A     76  64  66 S18       30.14F
$$


USA.gov is the U.S. government's official web portal to all federal, state and local government web resources and services.